EW3861 Weather Reports


time (UTC)temp
C
wind
direction
speed
KPH
gust
KPH
rain 1hr
cm
rain 24hr
cm
rain mn
cm
humidity
%
barometer
mb
20260508200004 14 300 0.0 0.0 0.00 0.00 0.00 43 1008.0
20260508194504 15 68 0.0 0.0 0.00 0.00 0.00 42 1007.9
20260508193003 15 225 0.0 0.0 0.00 0.00 0.00 39 1007.6
20260508191505 15 338 0.0 0.0 0.00 0.00 0.00 38 1007.6
20260508190002 16 322 0.0 0.0 0.00 0.00 0.00 37 1007.6
20260508184501 15 221 0.0 0.0 0.00 0.00 0.00 39 1007.5
20260508183003 15 264 0.0 0.0 0.00 0.00 0.00 40 1007.5
20260508181608 16 304 0.0 0.0 0.00 0.00 0.00 38 1007.5
20260508180100 16 290 0.0 0.0 0.00 0.00 0.00 38 1007.5
20260508174600 16 207 0.0 0.0 0.00 0.00 0.00 36 1007.5
20260508173058 16 279 0.0 0.0 0.00 0.00 0.00 36 1007.6
20260508171556 16 202 0.0 0.0 0.00 0.00 0.00 37 1007.7
20260508170058 16 232 0.0 0.0 0.00 0.00 0.00 37 1007.8
20260508164602 16 171 0.0 0.0 0.00 0.00 0.00 39 1007.8
20260508163051 15 260 0.0 0.0 0.00 0.00 0.00 40 1007.9
20260508161551 15 237 0.0 0.0 0.00 0.00 0.00 41 1007.9
20260508160048 15 233 0.0 0.0 0.00 0.00 0.00 40 1008.1
20260508154546 14 307 0.0 0.0 0.00 0.00 0.00 41 1008.3
20260508153043 14 222 0.0 0.0 0.00 0.00 0.00 41 1008.5
20260508151541 13 310 0.0 0.0 0.00 0.00 0.00 41 1008.6
20260508150042 13 299 0.0 0.0 0.00 0.00 0.00 40 1008.6
20260508144555 13 313 0.0 0.0 0.00 0.00 0.00 41 1008.6
20260508143036 13 232 0.0 0.0 0.00 0.00 0.00 42 1008.7
20260508141537 12 5 0.0 0.0 0.00 0.00 0.00 42 1008.8
20260508140039 12 203 0.0 0.0 0.00 0.00 0.00 42 1008.9
20260508134537 12 221 0.0 0.0 0.00 0.00 0.00 45 1009.0
20260508133042 12 268 0.0 0.0 0.00 0.00 0.00 46 1009.1
20260508131526 11 338 0.0 0.0 0.00 0.00 0.00 47 1009.1
20260508130022 11 30 0.0 0.0 0.00 0.00 0.00 49 1009.1
20260508124518 10 325 0.0 0.0 0.00 0.00 0.00 52 1009.2
20260508123014 9 265 0.0 0.0 0.00 0.00 0.00 56 1009.3
20260508121514 8 271 0.0 0.0 0.00 0.00 0.00 58 1009.3
20260508120013 8 315 0.0 0.0 0.00 0.00 0.00 60 1009.2
20260508114513 7 306 0.0 0.0 0.00 0.18 0.00 66 1009.2
20260508113011 5 5 0.0 0.0 0.00 0.18 0.00 80 1009.2
20260508111510 4 5 0.0 0.0 0.00 0.18 0.00 87 1009.1
20260508110020 3 5 0.0 0.0 0.00 0.18 0.00 88 1009.1
20260508104507 3 5 0.0 0.0 0.00 0.25 0.00 87 1008.9
20260508103007 3 5 0.0 0.0 0.00 0.25 0.00 87 1008.8
20260508101502 3 5 0.0 0.0 0.00 0.25 0.00 87 1008.7
20260508100002 2 5 0.0 0.0 0.00 0.25 0.00 86 1008.6
20260508094559 2 5 0.0 0.0 0.00 0.33 0.00 85 1008.4
20260508093058 2 5 0.0 0.0 0.00 0.33 0.00 85 1008.3
20260508091609 2 5 0.0 0.0 0.00 0.33 0.00 83 1008.2
20260508090109 3 5 0.0 0.0 0.00 0.33 0.00 83 1008.2
20260508084551 3 5 0.0 0.0 0.00 0.56 0.00 81 1008.1
20260508083050 3 5 0.0 0.0 0.00 0.56 0.00 80 1008.1
20260508081546 3 5 0.0 0.0 0.00 0.56 0.00 78 1007.8
20260508080043 4 5 0.0 0.0 0.00 0.56 0.00 76 1007.6
20260508074543 5 5 0.0 0.0 0.00 0.69 0.00 74 1007.3
20260508073039 5 5 0.0 0.0 0.00 0.69 0.00 72 1007.0
20260508071545 5 5 0.0 0.0 0.00 0.69 0.00 70 1006.9
20260508070030 6 5 0.0 0.0 0.00 0.69 0.00 69 1006.6
20260508064527 6 5 0.0 0.0 0.00 0.69 0.00 67 1006.4
20260508063023 7 5 0.0 0.0 0.00 0.69 0.00 67 1006.7
20260508061522 7 5 0.0 0.0 0.00 0.69 0.00 64 1006.6
20260508060019 7 5 0.0 0.0 0.00 0.69 0.00 61 1006.6
20260508054518 8 5 0.0 0.0 0.00 0.69 0.00 59 1006.6
20260508053027 8 5 0.0 0.0 0.00 0.69 0.00 57 1006.7
20260508051510 8 5 0.0 0.0 0.00 0.69 0.00 56 1006.6
20260508050008 9 5 0.0 0.0 0.00 0.69 0.00 55 1006.7
20260508044506 9 5 0.0 0.0 0.00 0.69 0.00 53 1006.9
20260508043006 9 5 0.0 0.0 0.00 0.69 0.00 52 1006.7
20260508041504 9 5 0.0 0.0 0.00 0.69 0.00 52 1006.8
20260508040002 9 5 0.0 0.0 0.00 0.69 0.69 52 1006.8
20260508034501 9 237 0.0 0.0 0.00 0.69 0.69 52 1006.8
20260508033002 9 284 0.0 0.0 0.00 0.69 0.69 54 1006.8
20260508031500 9 300 0.0 0.0 0.00 0.69 0.69 53 1006.9
20260508030104 9 301 0.0 0.0 0.00 0.69 0.69 54 1007.0
20260508024607 9 302 0.0 0.0 0.00 0.69 0.69 54 1007.1
20260508023100 10 302 0.0 0.0 0.00 0.69 0.69 53 1006.9
20260508021559 10 302 0.0 0.0 0.00 0.69 0.69 51 1007.1
20260508020059 10 302 0.0 0.0 0.00 0.69 0.69 51 1007.2
20260508014558 10 302 0.0 0.0 0.00 0.69 0.69 50 1007.0
20260508013058 11 302 0.0 0.0 0.00 0.69 0.69 48 1006.9
20260508011601 11 302 0.0 0.0 0.00 0.69 0.69 47 1006.8
20260508010056 11 302 0.0 0.0 0.00 0.69 0.69 46 1006.6
20260508004558 12 302 0.0 0.0 0.00 0.71 0.69 46 1006.3
20260508003104 12 302 0.0 0.0 0.00 0.71 0.69 45 1005.9
20260508001554 13 302 0.0 0.0 0.00 0.71 0.69 43 1005.8
20260508000055 13 302 0.0 0.0 0.00 0.71 0.69 42 1005.6
20260507234553 13 302 0.0 0.0 0.00 0.79 0.69 40 1005.5
20260507233101 14 348 0.0 0.0 0.00 0.79 0.69 39 1005.4
20260507231554 15 102 0.0 0.0 0.00 0.79 0.69 39 1005.2
20260507230051 15 236 0.0 0.0 0.00 0.79 0.69 37 1005.1
20260507224557 15 339 0.0 0.0 0.00 0.79 0.69 35 1004.9
20260507223052 16 319 0.0 0.0 0.00 0.79 0.69 35 1004.6
20260507221550 16 342 0.0 0.0 0.00 0.79 0.69 35 1004.6
20260507220049 16 22 0.0 0.0 0.00 0.79 0.69 34 1004.5
20260507214556 17 306 0.0 0.0 0.00 0.79 0.69 32 1004.5
20260507213101 18 263 0.0 0.0 0.00 0.79 0.69 33 1004.2
20260507211549 18 269 0.0 0.0 0.00 0.79 0.69 33 1004.2
20260507210050 18 212 0.0 0.0 0.00 0.79 0.69 33 1004.0
20260507204547 18 294 0.0 0.0 0.00 0.79 0.69 32 1004.0
20260507203047 18 216 0.0 0.0 0.00 0.79 0.69 34 1003.9
20260507201546 18 291 0.0 0.0 0.00 0.79 0.69 31 1003.9